Location: Tallgrass Prairie National Preserve
(38.4367°N, 96.5727°W)
Time: 01:08:11
(UTC-06:00)

BlueWalker 3 - Visible Passes

Search period start: 16 November 2025 00:00
Search period end: 26 November 2025 00:00
Orbit: 456 x 463 km, 53.2° (Epoch: 15 November)

Date Brightness Start Highest point End Pass type
(mag) Time Alt. Az. Time Alt. Az. Time Alt. Az.
16 Nov 4.1 19:35:02 10° SW 19:36:18 21° SW 19:36:18 21° SW visible
17 Nov 2.0 19:00:34 10° SW 19:03:40 60° S 19:03:40 60° S visible
18 Nov 2.0 18:26:10 10° SSW 18:29:41 52° SE 18:30:56 34° ENE visible
18 Nov 5.2 20:04:35 10° W 20:04:45 11° W 20:04:45 11° W visible
19 Nov 2.5 17:51:51 10° SSW 17:55:13 38° SE 17:58:07 13° ENE visible
19 Nov 4.0 19:29:46 10° W 19:31:55 23° WNW 19:31:55 23° WNW visible
20 Nov 3.1 18:55:00 10° W 18:58:15 31° NNW 18:59:00 28° N visible
21 Nov 2.8 18:20:15 10° WSW 18:23:39 39° NW 18:25:59 18° NNE visible
22 Nov 2.4 17:45:34 10° WSW 17:49:04 50° NW 17:52:37 10° NE visible
22 Nov 4.6 19:25:47 10° NW 19:26:42 12° NNW 19:26:42 12° NNW visible
23 Nov 4.2 18:50:40 10° NW 18:52:38 14° NNW 18:53:33 13° N visible
24 Nov 4.1 18:15:37 10° WNW 18:17:56 16° NNW 18:20:15 10° NNE visible
25 Nov 3.9 17:40:37 10° WNW 17:43:13 18° NNW 17:45:51 10° NNE visible
